Lid_Strength_Index
6 7 7 6 5 5 4 4 4 4 3 4 4 5 5 6 6 6 7 7 7 7
6 6 5 5 4 4 4 3 4 4 5 5 5 5 6 7 7 8 8 8 8 8
5 4 4 4 4 4 4 5 5 5 6 6 6 6 7 7 7 8 8 7 8 8
4 4 4 4 4 4 5 5 6 5 6 6 6 6 7 7 7 7 7 7 7 7
5 5 5 5 5 5 6 6 6 6 6 6 6 6 7 7 7 7 7 7 7 7
6 6 6 6 6 6 7 7 6 6 6 6 6 7 7 7 7 7 7 7 7 7
7 7 7 7 7 7 7 7 7 6 6 6 7 6 7 6 6 6 6 6 6 7
8 7 7 7 7 7 7 7 7 7 7 7 7 6 6 6 6 7 7 7 7 7
8 8 8 8 7 7 7 7 6 6 6 7 6 6 6 6 6 7 8 8 7 6
9 9 9 8 8 8 8 8 8 7 7 7 7 7 8 7 9 9 8 8 7 7
10 10 9 9 9 9 9 8 8 7 7 7 7 8 9 9 10 10 9 8 8 7
10 10 10 9 8 9 9 8 6 6 7 9 9 9 10 10 10 10 10 9 8 8
9 9 9 8 9 7 7 7 7 8 9 9 11 11 11 11 11 11 11 10 9 8
10 10 9 9 8 9 9 9 9 10 11 12 12 12 11 12 12 11 11 11 10 7